Find STARLINK-37945

NORAD ID: 799501020 Int'l Des: 2026-143W Constellation: starlink operational

Current View

Loading 3D Globe...

About STARLINK-37945

STARLINK-37945 (NORAD 799501020) is a starlink constellation satellite launched Jun 12, 2026

About STARLINK-37945

Description loading...

Upcoming Passes

Passes for default location (London). Set your location on the main map for personalized predictions.

Altitude History

Loading altitude history...

Two-Line Element Set

1 99999C 2026143W 26172.85881943 .00647610 00000-0 100040-3 0 1722
2 99999 97.2826 215.6890 0010772 273.4655 85.5617 16.03778604 16
Epoch: Jun 21, 2026 • Age: 9 hours